Location: San Vito
(41.8833°N, 12.9833°E)
Time: 16:25:32
(UTC+00:00)

Cosmos 1328 Rocket - Pass Details

Date: 17 November 2019
Orbit: 600 x 628 km, 82.5° (Epoch: 15 December)

Event Time Altitude Azimuth Distance (km) Brightness Sun altitude
Rises 04:25:19 0° 353° (N) 2,875 6.8 -17.5°
Reaches altitude 10° 04:27:33 10° 355° (N) 1,963 6.0 -17.1°
Maximum altitude 04:31:54 78° 82° (E) 621 3.6 -16.3°
Drops below altitude 10° 04:36:11 10° 169° (S) 1,937 6.4 -15.5°
Sets 04:38:23 0° 170° (S) 2,834 7.2 -15.1°
